Flag Weather past 2 weeks in Nantes, France

Now
52 °F

Clear.


Feels Like: 48 °F
Forecast: 45 / 61 °F
Wind: 10 mph from East

Location: Nantes Airport

Current Time: Nov 28, 2014 at 12:45:39 AM

Latest Report: Nov 28, 2014 at 12:00 AM


Visibility: 10 mi

Pressure: 29.36 "Hg

Humidity: 88%

Dew point: 48 °F

Location of NantesLocation

Historic Weather in Nantes — Graph

°F

Nantes temperature yesterday

Maximum temperature yesterday: 54 °F (at 1:30 PM)
Minimum temperature yesterday: 43 °F (at 8:00 AM)
Average temperature yesterday: 49 °F

Past Weeks' High & Low Weather Summary

 TemperatureHumidityPressure
High64 °F (Nov 21, 3:00 PM)100% (Nov 13, 12:30 AM)30.15 "Hg (Nov 13, 12:30 AM)
Low39 °F (Nov 17, 3:30 AM)59% (Nov 14, 3:00 PM)29.39 "Hg (Nov 16, 2:30 AM)
Average52 °F91%29.79 "Hg
* Reported Nov 12 11:00 PM — Nov 27 11:30 PM, Nantes, Weather by CustomWeather, © 2014

Note: Actual official high and low records may vary slightly from our data, if they occured in-between our weather recording intervals... More about our weather records

Advertising

Nantes weather history for previous 24 hours

 ConditionsComfort  
Time TempWeatherWind HumidityBarometerVisibility
11:30 PM
Nov 27
52 °FClear.12 mph88%29.39 "Hg10 mi
11:00 PM52 °FClear.12 mph88%29.39 "Hg10 mi
10:30 PM52 °FClear.12 mph88%29.39 "Hg10 mi
10:00 PM52 °FClear.10 mph88%29.39 "Hg10 mi
9:30 PM52 °FClear.8 mph88%29.42 "Hg10 mi
9:00 PM52 °FClear.12 mph88%29.42 "Hg10 mi
8:30 PM52 °FPassing clouds.13 mph88%29.42 "HgN/A
8:00 PM52 °FPassing clouds.12 mph88%29.42 "HgN/A
7:30 PM52 °FPartly cloudy.9 mph94%29.42 "HgN/A
7:00 PM52 °FPassing clouds.12 mph94%29.45 "HgN/A
6:30 PM52 °FPassing clouds.10 mph94%29.45 "HgN/A
6:00 PM52 °FPartly cloudy.10 mph94%29.45 "HgN/A
5:30 PM54 °FClear.10 mph88%29.45 "Hg10 mi
5:00 PM54 °FSunny.9 mph88%29.45 "Hg10 mi
4:30 PM54 °FSunny.9 mph88%29.47 "Hg10 mi
4:00 PM54 °FSunny.8 mph88%29.47 "Hg10 mi
3:30 PM54 °FBroken clouds.9 mph88%29.47 "HgN/A
3:00 PM54 °FBroken clouds.12 mph88%29.50 "HgN/A
2:30 PM54 °FPartly sunny.12 mph88%29.50 "HgN/A
2:00 PM54 °FBroken clouds.9 mph88%29.53 "HgN/A
1:30 PM54 °FBroken clouds.8 mph94%29.53 "HgN/A
1:00 PM50 °FBroken clouds.8 mph100%29.56 "HgN/A
12:30 PM50 °FBroken clouds.9 mph94%29.56 "Hg5 mi
12:00 PM48 °FFog.9 mph100%29.59 "Hg1 mi
11:30 AM46 °FFog.7 mph100%29.59 "Hg1 mi
11:00 AM46 °FFog.6 mph100%29.62 "Hg0 mi
10:30 AM45 °FFog.3 mph100%29.62 "Hg0 mi
10:00 AM45 °FFog.5 mph93%29.65 "Hg0 mi
9:30 AM43 °FFog.6 mph93%29.65 "Hg0 mi
9:00 AM43 °FLight fog.7 mph93%29.65 "Hg1 mi
8:30 AM43 °FFog.6 mph93%29.65 "Hg2 mi
8:00 AM43 °FSnow. Overcast.3 mph100%29.65 "Hg2 mi
7:30 AM45 °FFog.5 mph93%29.65 "Hg2 mi
7:00 AM45 °FFog.8 mph93%29.65 "Hg2 mi
6:30 AM45 °FFog.8 mph100%29.65 "Hg2 mi
6:00 AM45 °FFog.8 mph100%29.65 "Hg2 mi
5:30 AM46 °FFog.7 mph93%29.68 "Hg2 mi
5:00 AM46 °FFog.6 mph93%29.68 "Hg1 mi
4:30 AM46 °FFog.6 mph93%29.68 "Hg1 mi
3:30 AM48 °FFog.5 mph100%29.71 "Hg3 mi
3:00 AM48 °FMostly cloudy.5 mph100%29.71 "Hg4 mi
2:30 AM48 °FDrizzle. Fog.7 mph94%29.74 "Hg2 mi
2:00 AM46 °FFog.5 mph93%29.74 "Hg1 mi
1:30 AM45 °FFog.3 mph100%29.74 "Hg1 mi
12:30 AM46 °FFog.5 mph93%29.77 "Hg1 mi
12:00 AM46 °FFog.3 mph100%29.77 "Hg1 mi
Weather by CustomWeather, © 2014

See weather overviewHow to use our weather pages